Geneva, Switzerland

7:21 PM CEST on April 30, 2017 (GMT +0200)
Cointrin

Weather History for LSGG - February, 2014

Change the Weather History Date:

Friday, February 21, 2014

  Actual Average Record
Temperature  
Mean Temperature 42 °F -  
Max Temperature 46 °F 47 °F 63 °F (2016)
Min Temperature 37 °F 32 °F 19 °F (2003)
Degree Days  
Heating Degree Days 24    
Moisture  
Dew Point 40 °F    
Average Humidity 87    
Maximum Humidity 100    
Minimum Humidity 56    
Precipitation  
Precipitation 0.16 in 0.10 in - ()
Sea Level Pressure  
Sea Level Pressure 29.95 in    
Wind  
Wind Speed 3 mph ()    
Max Wind Speed 12 mph    
Max Gust Speed -    
Visibility 5.8 miles    
Events Rain    
Averages and records for this station are not official NWS values.
T = Trace of Precipitation, MM = Missing Value Source: Averaged Metar Reports

Daily Weather History Graph

Daily Weather History Graph

Search for Another Location

Airport or City:

Trip Planner

Search our weather history database for the weather conditions in past years. The results will help you decide how hot, cold, wet, or windy it might be!

Date:

Astronomy

Feb. 21, 2014 Rise Set
Actual Time 7:29 AM CET 6:09 PM CET
Civil Twilight 6:58 AM CET 6:40 PM CET
Nautical Twilight 6:23 AM CET 7:15 PM CET
Astronomical Twilight 5:49 AM CET 7:50 PM CET
Moon 12:07 AM CET (2/21) 10:19 AM CET (2/21)
Length of Visible Light 11h 41m
Length of Day
10h 40m
Waning Gibbous, 63% of the Moon is Illuminated
Feb 21
Waning Gibbous
Feb 22
Last Quarter
Mar 1
New
Mar 8
First Quarter
Mar 16
Full

Hourly Weather History & Observations

Time (CET) Temp. Windchill Dew Point Humidity Pressure Visibility Wind Dir Wind Speed Gust Speed Precip Events Conditions
12:00 AM 46 °F - 40 °F 72% 29.94 in - ENE 2.3 mph - -  
12:20 AM 46.4 °F - 41.0 °F 81% 29.92 in 6.2 mi Variable 1.2 mph - N/A Rain Light Rain
12:50 AM 44.6 °F - 42.8 °F 93% 29.89 in 6.2 mi Calm Calm - N/A Rain Light Rain
1:00 AM 44 °F - 42 °F 91% 29.93 in 11 mi NE 1.2 mph - - Rain Light Rain
1:20 AM 44.6 °F - 42.8 °F 93% 29.89 in 6.2 mi Calm Calm - N/A Rain Light Rain
1:50 AM 44.6 °F - 42.8 °F 93% 29.89 in 6.2 mi Calm Calm - N/A Rain Light Rain
2:00 AM 44 °F - 42 °F 90% 29.93 in - NNW 1.2 mph - -  
2:50 AM 42.8 °F - 42.8 °F 100% 29.89 in 6.2 mi WSW 2.3 mph - N/A Rain Light Rain
3:00 AM 44 °F - 41 °F 86% 29.92 in - West 2.3 mph - -  
3:20 AM 44.6 °F - 42.8 °F 93% 29.89 in 5.0 mi West 1.2 mph - N/A Rain Light Rain
3:50 AM 42.8 °F - 42.8 °F 100% 29.86 in 6.2 mi Variable 2.3 mph - N/A Rain Light Rain
4:00 AM 44 °F - 42 °F 89% 29.90 in 7 mi West 3.5 mph - - Rain Light Rain
4:20 AM 42.8 °F - 42.8 °F 100% 29.86 in 3.7 mi West 2.3 mph - N/A Rain Light Rain
4:50 AM 42.8 °F - 42.8 °F 100% 29.89 in 3.7 mi Variable 2.3 mph - N/A Rain Light Rain
5:00 AM 44 °F - 42 °F 90% 29.91 in - WSW 2.3 mph - -  
5:20 AM 42.8 °F - 42.8 °F 100% 29.86 in 3.7 mi SSW 1.2 mph - N/A Rain Rain Showers
5:50 AM 42.8 °F - 42.8 °F 100% 29.89 in 3.7 mi Calm Calm - N/A Rain Rain Showers
6:00 AM 44 °F - 42 °F 91% 29.91 in - NNE 3.5 mph - -  
6:20 AM 42.8 °F - 42.8 °F 100% 29.89 in 4.3 mi Variable 1.2 mph - N/A   Overcast
6:50 AM 42.8 °F - 42.8 °F 100% 29.89 in 5.0 mi Calm Calm - N/A Rain Light Rain Showers
7:00 AM 44 °F - 42 °F 90% 29.91 in 6 mi West 2.3 mph - - Rain Light Rain Showers
7:20 AM 42.8 °F - 42.8 °F 100% 29.89 in 3.7 mi WNW 2.3 mph - N/A Rain Light Rain Showers
7:50 AM 42.8 °F 41.1 °F 42.8 °F 100% 29.89 in 4.3 mi Variable 3.5 mph - N/A Rain Light Rain Showers
8:00 AM 44 °F - 42 °F 90% 29.93 in - SSE 3.5 mph - -  
8:20 AM 42.8 °F 39.3 °F 42.8 °F 100% 29.89 in 6.2 mi ESE 5.8 mph - N/A   Mostly Cloudy
8:50 AM 42.8 °F 41.1 °F 42.8 °F 100% 29.89 in 5.6 mi South 3.5 mph - N/A Rain Light Rain Showers
9:00 AM 43 °F - 41 °F 89% 29.95 in - ESE 2.3 mph - -  
9:20 AM 42.8 °F 39.3 °F 42.8 °F 100% 29.92 in 4.3 mi SSE 5.8 mph - N/A Rain Light Rain Showers
9:50 AM 42.8 °F 38.0 °F 41.0 °F 93% 29.92 in 5.0 mi South 8.1 mph - N/A Rain Light Rain Showers
10:00 AM 43 °F - 40 °F 85% 29.97 in 4 mi SSW 9.2 mph - - Rain Light Rain Showers
10:20 AM 42.8 °F 37.0 °F 41.0 °F 93% 29.95 in 5.6 mi South 10.4 mph - N/A Rain Light Rain
10:50 AM 42.8 °F 37.0 °F 41.0 °F 93% 29.95 in 5.6 mi SSW 10.4 mph - N/A Rain Light Rain
11:00 AM 43 °F - 39 °F 80% 29.99 in - SW 11.5 mph - -  
11:20 AM 42.8 °F 38.6 °F 39.2 °F 87% 29.98 in 5.6 mi SW 6.9 mph - N/A Rain Light Rain
11:50 AM 42.8 °F 38.6 °F 39.2 °F 87% 29.98 in 6.2 mi SSW 6.9 mph - N/A Rain Light Rain
12:00 PM 43 °F - 40 °F 83% 30.01 in - SSW 8.1 mph - -  
12:20 PM 42.8 °F 37.5 °F 39.2 °F 87% 29.98 in 6.2 mi SSW 9.2 mph - N/A Rain Light Rain
12:50 PM 44.6 °F 39.7 °F 39.2 °F 81% 29.95 in 6.2 mi SSW 9.2 mph - N/A Rain Light Rain
1:00 PM 44 °F - 38 °F 74% 29.99 in 22 mi SW 11.5 mph - - Rain Light Rain
1:20 PM 44.6 °F 39.7 °F 39.2 °F 81% 29.95 in 6.2 mi SSW 9.2 mph - N/A Rain Light Rain
1:50 PM 44.6 °F 40.7 °F 41.0 °F 87% 29.95 in 6.2 mi WSW 6.9 mph - N/A Rain Light Rain
2:00 PM 44 °F - 38 °F 73% 29.98 in - WSW 6.9 mph - -  
2:20 PM 44.6 °F 40.2 °F 39.2 °F 81% 29.95 in 6.2 mi SW 8.1 mph - N/A   Mostly Cloudy
2:50 PM 46.4 °F 42.9 °F 39.2 °F 76% 29.95 in 6.2 mi SSW 6.9 mph - N/A   Mostly Cloudy
3:00 PM 45 °F - 37 °F 66% 29.97 in - SSW 8.1 mph - -  
3:20 PM 46.4 °F 42.9 °F 39.2 °F 76% 29.95 in 6.2 mi South 6.9 mph - N/A   Mostly Cloudy
3:50 PM 46.4 °F 43.5 °F 37.4 °F 71% 29.95 in 6.2 mi SSW 5.8 mph - N/A   Mostly Cloudy
4:00 PM 46 °F - 35 °F 56% 29.98 in 31 mi South 6.9 mph - -   Partly Cloudy
4:20 PM 46.4 °F 42.4 °F 37.4 °F 71% 29.95 in 6.2 mi South 8.1 mph - N/A   Mostly Cloudy
4:50 PM 46.4 °F 43.5 °F 37.4 °F 71% 29.95 in 6.2 mi South 5.8 mph - N/A   Mostly Cloudy
5:00 PM 45 °F - 36 °F 62% 29.98 in - SSW 6.9 mph - -  
5:20 PM 44.6 °F 42.2 °F 37.4 °F 76% 29.95 in 6.2 mi SSW 4.6 mph - N/A   Mostly Cloudy
5:50 PM 44.6 °F 42.2 °F 37.4 °F 76% 29.95 in 6.2 mi SSW 4.6 mph - N/A   Scattered Clouds
6:00 PM 44 °F - 35 °F 63% 29.99 in - SSW 5.8 mph - -  
6:20 PM 42.8 °F 40.1 °F 35.6 °F 76% 29.95 in 6.2 mi WSW 4.6 mph - N/A   Scattered Clouds
6:50 PM 41.0 °F - 37.4 °F 87% 29.95 in 6.2 mi Variable 1.2 mph - N/A   Scattered Clouds
7:00 PM 42 °F - 38 °F 79% 30.01 in 31 mi SSE 1.2 mph - -   Partly Cloudy
7:20 PM 41.0 °F - 37.4 °F 87% 29.98 in 6.2 mi Variable 2.3 mph - N/A   Scattered Clouds
7:50 PM 39.2 °F - 37.4 °F 93% 29.98 in 6.2 mi Calm Calm - N/A   Partly Cloudy
8:00 PM 40 °F - 37 °F 83% 30.03 in - ENE 2.3 mph - -  
8:20 PM 39.2 °F - 37.4 °F 93% 29.98 in 6.2 mi Variable 2.3 mph - N/A   Partly Cloudy
8:50 PM 41.0 °F - 37.4 °F 87% 29.98 in 6.2 mi Variable 2.3 mph - N/A   Scattered Clouds
9:00 PM 41 °F - 36 °F 77% 30.04 in - West 1.2 mph - -  
9:20 PM 39.2 °F - 37.4 °F 93% 30.01 in 6.2 mi Variable 1.2 mph - N/A   Mostly Cloudy
9:50 PM 39.2 °F 37.0 °F 37.4 °F 93% 30.01 in 6.2 mi Variable 3.5 mph - N/A   Mostly Cloudy
10:00 PM 39 °F - 36 °F 84% 30.06 in 31 mi NNW 2.3 mph - -   Scattered Clouds
10:20 PM 37.4 °F - 35.6 °F 93% 30.01 in 6.2 mi Variable 2.3 mph - N/A   Mostly Cloudy
10:50 PM 39.2 °F - 35.6 °F 87% 30.01 in 6.2 mi Variable 1.2 mph - N/A   Mostly Cloudy
11:00 PM 38 °F - 35 °F 85% 30.07 in - SW 2.3 mph - -  
11:20 PM 37.4 °F - 35.6 °F 93% 30.01 in 6.2 mi Variable 1.2 mph - N/A   Scattered Clouds
11:50 PM 37.4 °F - 35.6 °F 93% 30.04 in 6.2 mi Calm Calm - N/A   Mostly Cloudy